TimeCDT,TemperatureF,Dew PointF,Humidity,Sea Level PressureIn,VisibilityMPH,Wind Direction,Wind SpeedMPH,Gust SpeedMPH,PrecipitationIn,Events,Conditions,WindDirDegrees,DateUTC
12:15 AM,53.6,53.6,100,30.08,7.0,Calm,Calm,-,N/A,,Clear,0,2013-09-15 05:15:00
12:35 AM,53.6,53.6,100,30.09,6.0,Calm,Calm,-,N/A,,Clear,0,2013-09-15 05:35:00
12:55 AM,53.6,51.8,94,30.09,6.0,Calm,Calm,-,N/A,,Clear,0,2013-09-15 05:55:00
1:15 AM,53.6,51.8,94,30.08,9.0,Calm,Calm,-,N/A,,Clear,0,2013-09-15 06:15:00
1:35 AM,51.8,51.8,100,30.08,7.0,Calm,Calm,-,N/A,,Clear,0,2013-09-15 06:35:00
1:55 AM,51.8,51.8,100,30.08,9.0,Calm,Calm,-,N/A,,Clear,0,2013-09-15 06:55:00
2:15 AM,51.8,51.8,100,30.07,8.0,NE,3.5,-,N/A,,Clear,40,2013-09-15 07:15:00
2:35 AM,51.8,50.0,94,30.07,8.0,Calm,Calm,-,N/A,,Clear,0,2013-09-15 07:35:00
2:55 AM,50.0,48.2,94,30.07,7.0,Calm,Calm,-,N/A,,Clear,0,2013-09-15 07:55:00
3:15 AM,50.0,48.2,94,30.07,7.0,Calm,Calm,-,N/A,,Clear,0,2013-09-15 08:15:00
3:35 AM,50.0,48.2,94,30.07,8.0,Calm,Calm,-,N/A,,Clear,0,2013-09-15 08:35:00
3:55 AM,48.2,48.2,100,30.08,7.0,Calm,Calm,-,N/A,,Clear,0,2013-09-15 08:55:00
4:15 AM,48.2,48.2,100,30.08,6.0,Calm,Calm,-,N/A,,Clear,0,2013-09-15 09:15:00
4:35 AM,48.2,48.2,100,30.08,7.0,Calm,Calm,-,N/A,,Clear,0,2013-09-15 09:35:00
4:55 AM,48.2,48.2,100,30.08,6.0,Calm,Calm,-,N/A,,Partly Cloudy,0,2013-09-15 09:55:00
5:15 AM,48.2,46.4,93,30.08,6.0,Calm,Calm,-,N/A,,Clear,0,2013-09-15 10:15:00
5:35 AM,48.2,46.4,93,30.09,7.0,Calm,Calm,-,N/A,,Clear,0,2013-09-15 10:35:00
5:55 AM,46.4,46.4,100,30.09,7.0,Calm,Calm,-,N/A,,Clear,0,2013-09-15 10:55:00
6:15 AM,46.4,46.4,100,30.10,6.0,Calm,Calm,-,N/A,,Clear,0,2013-09-15 11:15:00
6:35 AM,46.4,46.4,100,30.10,7.0,Calm,Calm,-,N/A,,Clear,0,2013-09-15 11:35:00
6:55 AM,46.4,46.4,100,30.10,5.0,Calm,Calm,-,N/A,,Clear,0,2013-09-15 11:55:00
7:15 AM,46.4,46.4,100,30.10,7.0,Calm,Calm,-,N/A,,Clear,0,2013-09-15 12:15:00
7:35 AM,48.2,46.4,93,30.11,7.0,Calm,Calm,-,N/A,,Clear,0,2013-09-15 12:35:00
7:55 AM,48.2,48.2,100,30.12,7.0,Calm,Calm,-,N/A,,Clear,0,2013-09-15 12:55:00
8:15 AM,51.8,50.0,94,30.11,10.0,Calm,Calm,-,N/A,,Clear,0,2013-09-15 13:15:00
8:35 AM,55.4,51.8,88,30.12,10.0,Calm,Calm,-,N/A,,Clear,0,2013-09-15 13:35:00
8:55 AM,57.2,51.8,82,30.12,10.0,Calm,Calm,-,N/A,,Clear,0,2013-09-15 13:55:00
9:15 AM,59.0,53.6,82,30.12,10.0,Calm,Calm,-,N/A,,Clear,0,2013-09-15 14:15:00
9:35 AM,62.6,53.6,72,30.12,10.0,Calm,Calm,-,N/A,,Clear,0,2013-09-15 14:35:00
9:55 AM,66.2,53.6,64,30.12,10.0,Calm,Calm,-,N/A,,Clear,0,2013-09-15 14:55:00
10:15 AM,69.8,53.6,56,30.12,10.0,Calm,Calm,-,N/A,,Clear,0,2013-09-15 15:15:00
10:35 AM,69.8,55.4,60,30.12,10.0,Calm,Calm,-,N/A,,Clear,0,2013-09-15 15:35:00
10:55 AM,71.6,55.4,57,30.12,10.0,Calm,Calm,-,N/A,,Clear,0,2013-09-15 15:55:00
11:15 AM,75.2,55.4,50,30.11,10.0,Calm,Calm,-,N/A,,Clear,0,2013-09-15 16:15:00
11:35 AM,75.2,55.4,50,30.11,10.0,ENE,3.5,-,N/A,,Clear,60,2013-09-15 16:35:00
11:55 AM,78.8,53.6,42,30.10,10.0,West,6.9,-,N/A,,Clear,260,2013-09-15 16:55:00
12:15 PM,78.8,55.4,44,30.10,10.0,WSW,5.8,-,N/A,,Clear,250,2013-09-15 17:15:00
12:35 PM,80.6,55.4,42,30.10,10.0,WSW,5.8,-,N/A,,Clear,250,2013-09-15 17:35:00
12:55 PM,80.6,55.4,42,30.09,10.0,Calm,Calm,-,N/A,,Clear,0,2013-09-15 17:55:00
1:15 PM,82.4,55.4,39,30.09,10.0,Calm,Calm,-,N/A,,Clear,0,2013-09-15 18:15:00
1:35 PM,82.4,55.4,39,30.08,10.0,NNW,3.5,-,N/A,,Clear,340,2013-09-15 18:35:00
1:55 PM,82.4,55.4,39,30.08,10.0,SSW,5.8,-,N/A,,Clear,210,2013-09-15 18:55:00
2:15 PM,84.2,57.2,40,30.07,10.0,Calm,Calm,-,N/A,,Clear,0,2013-09-15 19:15:00
2:35 PM,84.2,57.2,40,30.06,10.0,WSW,4.6,-,N/A,,Clear,250,2013-09-15 19:35:00
2:55 PM,84.2,57.2,40,30.05,10.0,East,3.5,-,N/A,,Clear,80,2013-09-15 19:55:00
3:15 PM,87.8,57.2,35,30.05,10.0,SE,3.5,-,N/A,,Clear,140,2013-09-15 20:15:00
3:35 PM,87.8,59.0,38,30.04,10.0,Calm,Calm,-,N/A,,Clear,0,2013-09-15 20:35:00
3:55 PM,87.8,59.0,38,30.04,10.0,SSE,3.5,-,N/A,,Clear,150,2013-09-15 20:55:00
4:15 PM,87.8,59.0,38,30.04,10.0,Calm,Calm,-,N/A,,Clear,0,2013-09-15 21:15:00
4:35 PM,87.8,60.8,40,30.04,10.0,Calm,Calm,-,N/A,,Clear,0,2013-09-15 21:35:00
4:55 PM,87.8,60.8,40,30.04,10.0,Calm,Calm,-,N/A,,Clear,0,2013-09-15 21:55:00
5:15 PM,86.0,60.8,43,30.04,10.0,ESE,3.5,-,N/A,,Clear,120,2013-09-15 22:15:00
5:35 PM,86.0,62.6,45,30.04,10.0,Calm,Calm,-,N/A,,Clear,0,2013-09-15 22:35:00
5:55 PM,84.2,64.4,51,30.04,10.0,Calm,Calm,-,N/A,,Clear,0,2013-09-15 22:55:00
6:15 PM,82.4,62.6,51,30.04,10.0,ESE,3.5,-,N/A,,Clear,110,2013-09-15 23:15:00
6:35 PM,82.4,62.6,51,30.04,10.0,ESE,3.5,-,N/A,,Clear,110,2013-09-15 23:35:00
6:55 PM,80.6,60.8,51,30.04,10.0,East,3.5,-,N/A,,Clear,90,2013-09-15 23:55:00
7:15 PM,78.8,62.6,57,30.04,10.0,Calm,Calm,-,N/A,,Clear,0,2013-09-16 00:15:00
7:35 PM,73.4,64.4,73,30.05,10.0,Calm,Calm,-,N/A,,Clear,0,2013-09-16 00:35:00
7:55 PM,73.4,64.4,73,30.06,10.0,Calm,Calm,-,N/A,,Clear,0,2013-09-16 00:55:00
8:15 PM,71.6,64.4,78,30.07,10.0,Calm,Calm,-,N/A,,Clear,0,2013-09-16 01:15:00
8:35 PM,69.8,64.4,83,30.07,10.0,Calm,Calm,-,N/A,,Clear,0,2013-09-16 01:35:00
8:55 PM,69.8,64.4,83,30.07,10.0,Calm,Calm,-,N/A,,Clear,0,2013-09-16 01:55:00
9:15 PM,69.8,64.4,83,30.07,9.0,Calm,Calm,-,N/A,,Clear,0,2013-09-16 02:15:00
9:35 PM,68.0,64.4,88,30.08,8.0,Calm,Calm,-,N/A,,Clear,0,2013-09-16 02:35:00
9:55 PM,68.0,62.6,83,30.08,9.0,Calm,Calm,-,N/A,,Clear,0,2013-09-16 02:55:00
10:15 PM,66.2,62.6,88,30.09,8.0,Calm,Calm,-,N/A,,Clear,0,2013-09-16 03:15:00
10:35 PM,66.2,62.6,88,30.09,8.0,Calm,Calm,-,N/A,,Clear,0,2013-09-16 03:35:00
10:55 PM,66.2,62.6,88,30.09,8.0,Calm,Calm,-,N/A,,Clear,0,2013-09-16 03:55:00
11:15 PM,66.2,62.6,88,30.09,8.0,Calm,Calm,-,N/A,,Clear,0,2013-09-16 04:15:00
11:35 PM,66.2,62.6,88,30.09,8.0,Calm,Calm,-,N/A,,Clear,0,2013-09-16 04:35:00
11:55 PM,66.2,62.6,88,30.10,9.0,Calm,Calm,-,N/A,,Clear,0,2013-09-16 04:55:00